This is the latest recevied weather packets stored in our database for station/object N5COP-13. If no packets are shown the sender has not sent any weather packets the latest 10 day(s).
| Time | Temp. | Humidity | Pressure | Rain* | Wind** | Luminosity | Snow |
|---|---|---|---|---|---|---|---|
| 1777394661 | 21.67° C | 31% | 1015.5 hPa | 0 mm | - | 750 W/m² | - |
| 1777394357 | 21.67° C | 32% | 1015.6 hPa | 0 mm | - | 743 W/m² | - |
| 1777394054 | 21.67° C | 33% | 1015.6 hPa | 0 mm | - | 731 W/m² | - |
| 1777393749 | 21.11° C | 32% | 1015.8 hPa | 0 mm | - | 719 W/m² | - |
| 1777393449 | 21.11° C | 31% | 1015.4 hPa | 0 mm | - | 709 W/m² | - |
| 1777393145 | 21.67° C | 31% | 1015.6 hPa | 0 mm | - | 699 W/m² | - |
| 1777392842 | 20.56° C | 29% | 1015.6 hPa | 0 mm | - | 688 W/m² | - |
| 1777392537 | 20.56° C | 30% | 1015.9 hPa | 0 mm | - | 677 W/m² | - |
| 1777392233 | 20.56° C | 28% | 1015.5 hPa | 0 mm | - | 663 W/m² | - |
| 1777391629 | 20.56° C | 29% | 1015.6 hPa | 0 mm | - | 637 W/m² | - |
| 1777391326 | 20.56° C | 29% | 1015.8 hPa | 0 mm | - | 623 W/m² | - |
| 1777391023 | 20° C | 28% | 1015.5 hPa | 0 mm | - | 608 W/m² | - |
| 1777390718 | 20° C | 28% | 1015.8 hPa | 0 mm | - | 593 W/m² | - |
| 1777390416 | 20° C | 28% | 1015.4 hPa | 0 mm | - | 579 W/m² | - |
| 1777390112 | 20° C | 27% | 1015.5 hPa | 0 mm | - | 564 W/m² | - |
| 1777389808 | 20° C | 26% | 1015.2 hPa | 0 mm | - | 549 W/m² | - |
| 1777389505 | 20.56° C | 23% | 1015.4 hPa | 0 mm | - | 530 W/m² | - |
| 1777389202 | 20° C | 19% | 1015.3 hPa | 0 mm | - | 515 W/m² | - |
| 1777388900 | 20° C | 19% | 1015.2 hPa | 0 mm | - | 500 W/m² | - |
| 1777388596 | 19.44° C | 20% | 1015.3 hPa | 0 mm | - | 484 W/m² | - |
| 1777388293 | 18.89° C | 20% | 1015.3 hPa | 0 mm | - | 470 W/m² | - |
| 1777387987 | 18.89° C | 21% | 1015.2 hPa | 0 mm | - | 454 W/m² | - |
| 1777387684 | 18.89° C | 20% | 1015.1 hPa | 0 mm | - | 435 W/m² | - |
| 1777387380 | 18.89° C | 20% | 1014.7 hPa | 0 mm | - | 417 W/m² | - |
| 1777387075 | 18.33° C | 20% | 1014.9 hPa | 0 mm | - | 399 W/m² | - |
* Rain latest hour (hover to see other rain measurements)
** Current wind speed in m/s (hover to see current wind gust speed)